[[{"header":{"parameterUnit":"m.s-1","parameterCategory":1,"la1":30.2992,"la2":30.254,"lo1":-89.0895,"lo2":-89.0443,"dy":0.0025,"dx":0.0025,"nx":19,"ny":19,"refTime":"2026-03-29T09:00:00:Z","depth":0,"parameterNumber":2,"parameterNumberName":"U-component_of_WINDS"},"data":[0,0,0,-8.4855,-8.4858,-8.4978,-8.4978,-8.5165,-8.5167,0,0,0,0,0,0,0,0,0,0,0,-8.4842,-8.4844,-8.4855,-8.4858,-8.4978,-8.4978,-8.5165,-8.5167,0,0,0,0,0,0,0,0,0,0,0,-8.4841,-8.4843,-8.4846,-8.4859,-8.4978,-8.4978,-8.5164,-8.5061,0,0,0,0,0,0,0,0,0,0,-8.4939,-8.4949,-8.4843,-8.4846,-8.486,-8.4978,-8.4978,-8.5056,-8.5068,-8.5126,0,-8.5185,0,-8.518,-8.5182,-8.5183,0,0,0,-8.4841,-8.4939,-8.4952,-8.4846,-8.4861,-8.4978,-8.4919,-8.5062,-8.5076,-8.5142,-8.5188,-8.5194,-8.5183,-8.5183,-8.5185,-8.5583,-8.5586,0,0,-8.4834,-8.4874,-8.4943,-8.4962,-8.4948,-8.4915,-8.4923,-8.507,-8.5121,-8.5188,-8.5197,-8.5186,-8.5185,-8.5187,-8.5581,-8.5584,0,0,0,-8.4827,-8.4871,-8.4879,-8.4955,-8.4974,-8.4919,-8.4928,-8.5114,-8.5114,-8.5199,-8.5188,-8.5186,-8.5189,-8.5578,-8.5582,-8.5753,0,0,0,-8.4822,-8.4866,-8.4877,-8.4903,-8.4973,-8.5046,-8.497,-8.5104,-8.5119,-8.5187,-8.5186,-8.5191,-8.5575,-8.558,-8.5741,-8.5825,0,0,0,-8.4826,-8.4866,-8.4892,-8.4905,-8.4958,-8.5043,-8.505,-8.5106,-8.5114,-8.5183,-8.5192,-8.5573,-8.5579,-8.5732,-8.5809,-8.5941,0,0,0,-8.4841,-8.5041,-8.4895,-8.5114,-8.4957,-8.515,-8.5049,-8.519,-8.527,-8.5187,-8.5575,-8.5581,-8.5728,-8.5799,-8.5931,-8.6058,-8.6115,0,0,-8.5115,-8.5075,-8.5201,-8.5074,-8.5303,-8.5128,-8.5381,-8.5415,-8.5384,-8.5518,-8.5527,-8.5745,-8.5808,-8.5939,-8.6428,-8.6474,0,0,0,-8.5301,-8.5392,-8.5444,-8.5523,-8.5557,-8.5591,-8.5583,-8.5596,-8.5708,-8.5462,-8.5829,-8.5865,-8.594,-8.5998,-8.6037,-8.6098,-8.5611,-8.561,-8.561,-8.5743,-8.5696,-8.59,-8.5868,-8.5947,-8.5938,-8.5997,-8.6012,-8.5939,-8.6027,-8.6065,-8.6368,-8.6439,-8.6468,-8.6532,-8.6131,-8.6131,-8.6132,-8.6132,-8.6138,-8.6257,-8.616,-8.6323,-8.6271,-8.6407,-8.6407,-8.6352,-8.6469,-8.6335,-8.6399,-8.6253,-8.652,-8.6573,-8.6145,-8.6143,-8.6141,-8.614,-8.6139,-8.6419,-8.6468,-8.6484,-8.6595,-8.6687,-8.6647,-8.6765,-8.6714,-8.6666,-8.673,-8.6763,-8.676,-8.6749,-8.675,-8.6752,-8.6753,-8.6753,-8.6754,-8.6755,-8.6704,-8.6715,-8.6822,-8.6878,-8.6923,-8.6976,-8.6972,-8.7014,-8.7048,-8.7001,-8.7001,-8.6918,-8.6556,-8.6464,-8.6771,-8.6768,-8.6766,-8.6764,-8.6763,-8.7115,-8.7015,-8.718,-8.7227,-8.7287,-8.7381,-8.7317,-8.7408,-8.7436,-8.7496,-8.7402,-8.7144,-8.7097,-8.7066,-8.6989,-8.7413,-8.7413,-8.7413,-8.7413,-8.735,-8.7324,-8.7482,-8.7559,-8.7629,-8.7588,-8.7775,-8.7776,-8.7759,-8.7773,-8.7706,-8.7601,-8.7572,-8.7543,-8.7501,-8.7428,-8.7954,-8.7955,-8.7955,-8.76,-8.7578,-8.7748,-8.7733,-8.7778,-8.7817,-8.7991,-8.8082,-8.8043,-8.7976,-8.7783,-8.776,-8.7591,-8.7539,-8.7462,-8.7399,-8.7265,0,0]},{"header":{"parameterUnit":"m.s-1","parameterCategory":1,"la1":30.2992,"la2":30.254,"lo1":-89.0895,"lo2":-89.0443,"dy":0.0025,"dx":0.0025,"nx":19,"ny":19,"refTime":"2026-03-29T09:00:00:Z","depth":0,"parameterNumber":3,"parameterNumberName":"V-component_of_WINDS"},"data":[0,0,0,2.1089,2.1087,2.1019,2.1018,2.0929,2.0928,0,0,0,0,0,0,0,0,0,0,0,2.1111,2.1111,2.1089,2.1087,2.1019,2.1018,2.0929,2.0928,0,0,0,0,0,0,0,0,0,0,0,2.1111,2.1111,2.111,2.1087,2.1019,2.1018,2.0929,2.0981,0,0,0,0,0,0,0,0,0,0,2.1047,2.107,2.1111,2.111,2.1087,2.1019,2.1018,2.0983,2.0977,2.096,0,2.0948,0,2.0937,2.0922,2.0922,0,0,0,2.1085,2.1075,2.1056,2.111,2.1086,2.1019,2.1049,2.098,2.0973,2.0953,2.0947,2.0943,2.0935,2.0921,2.0921,2.084,2.0839,0,0,2.1088,2.1098,2.106,2.1052,2.1066,2.1051,2.1047,2.0976,2.0969,2.0946,2.0941,2.0934,2.0921,2.092,2.084,2.0839,0,0,0,2.1101,2.1101,2.1083,2.1055,2.1043,2.1049,2.1044,2.0972,2.0966,2.094,2.0933,2.092,2.0919,2.084,2.084,2.0838,0,0,0,2.1103,2.1109,2.1085,2.109,2.1045,2.1007,2.1042,2.097,2.0962,2.0933,2.092,2.0919,2.084,2.084,2.0839,2.0835,0,0,0,2.1115,2.111,2.1101,2.1091,2.1063,2.1008,2.0998,2.0968,2.0958,2.0922,2.0918,2.084,2.084,2.084,2.0836,2.0817,0,0,0,2.1128,2.1097,2.1101,2.1064,2.1063,2.101,2.0998,2.0956,2.0925,2.092,2.084,2.084,2.084,2.0836,2.0818,2.0803,2.0798,0,0,2.1095,2.1094,2.1071,2.1073,2.1022,2.1019,2.0967,2.0926,2.0911,2.0864,2.0861,2.0839,2.0836,2.0817,2.0769,2.0766,0,0,0,2.1064,2.1048,2.1032,2.1006,2.0978,2.0953,2.0921,2.0907,2.0867,2.089,2.0827,2.0825,2.0814,2.0806,2.0803,2.0792,2.0837,2.0837,2.0837,2.1027,2.1015,2.0978,2.0958,2.0932,2.0902,2.088,2.0855,2.0845,2.0831,2.0816,2.0789,2.078,2.0778,2.0767,2.0808,2.0808,2.0808,2.0808,2.0976,2.0951,2.0947,2.0908,2.0895,2.0861,2.0831,2.0827,2.0792,2.0798,2.0787,2.0795,2.0775,2.0764,2.0808,2.0808,2.0808,2.0808,2.0808,2.095,2.0936,2.0923,2.0887,2.0859,2.0839,2.0808,2.0796,2.0784,2.0773,2.0757,2.0756,2.0754,2.0767,2.0767,2.0767,2.0767,2.0767,2.0767,2.0927,2.0913,2.089,2.0862,2.0845,2.0821,2.0794,2.0776,2.0752,2.0745,2.0745,2.0738,2.0776,2.0786,2.0765,2.0765,2.0765,2.0766,2.0766,2.0877,2.0888,2.0852,2.0836,2.0803,2.0778,2.0765,2.0731,2.0714,2.0699,2.0695,2.0726,2.0722,2.0725,2.0732,2.0699,2.0699,2.0699,2.0699,2.0854,2.0853,2.0816,2.0792,2.0766,2.0753,2.0711,2.0691,2.067,2.0659,2.0662,2.0672,2.0675,2.0669,2.0673,2.0679,2.0633,2.0633,2.0633,2.0822,2.082,2.0787,2.0772,2.0747,2.0725,2.0686,2.0656,2.0634,2.063,2.0649,2.0652,2.0668,2.0673,2.0667,2.0673,2.0684,0,0]}]]